Wind_Speed
10 10 10 9 10 11 11 15 18 19 20 17 15 18 19 18 19 21 23 24 24 24 23 24 25 24 23 23 22 21 20 20 17 14 13 14 15 15 13 12 12 11 9 9 11 11 10 10 9 9 9 9 9 9 9 9 9 10 10 11 12 14 15
11 10 10 10 11 11 12 18 20 20 23 21 20 22 21 23 24 23 23 24 25 24 23 23 24 24 23 23 23 21 20 18 15 14 14 16 15 13 12 12 11 10 9 9 10 9 9 9 8 7 8 7 7 8 8 8 8 9 9 9 9 10 12
10 11 11 10 10 10 12 17 19 23 27 25 21 20 21 24 26 24 24 26 25 24 23 23 23 23 23 24 23 21 19 16 14 14 16 17 14 13 14 13 11 9 9 9 9 8 8 8 7 7 6 6 7 8 9 9 8 9 9 8 8 8 9
10 11 11 11 11 11 13 16 19 24 27 25 22 22 23 25 25 24 25 26 24 23 24 24 24 24 24 23 22 19 17 15 14 16 17 16 14 16 17 14 11 10 9 9 8 7 7 7 7 7 6 6 8 9 10 10 9 10 10 9 8 6 7
12 12 11 10 11 10 11 16 20 24 27 27 25 23 24 26 25 25 25 24 23 24 25 26 25 25 24 22 20 18 16 15 16 18 18 16 17 19 17 14 12 11 9 8 7 6 6 7 7 8 7 7 8 9 10 10 10 11 11 12 11 8 6
12 11 10 9 10 9 10 15 21 27 31 28 24 22 25 26 25 24 24 23 24 24 25 25 25 25 23 20 18 17 16 16 17 19 18 18 19 19 16 14 14 13 11 9 7 5 5 5 6 6 6 6 7 8 9 9 11 12 13 14 14 11 8
11 10 9 9 10 9 10 15 21 27 30 27 25 24 24 24 25 25 25 25 25 25 25 25 24 24 21 19 17 17 17 17 18 19 18 18 18 17 16 14 13 12 12 10 8 7 7 7 7 7 7 6 6 7 8 9 10 11 12 14 16 14 10
10 9 9 10 11 9 10 15 20 23 24 24 25 25 24 25 25 25 26 26 26 26 26 25 24 23 20 18 18 16 16 17 19 18 17 17 17 16 15 13 11 10 11 12 11 12 12 12 13 13 11 8 6 6 6 8 9 10 11 13 15 14 11
9 10 10 10 10 9 12 17 20 21 22 22 23 23 24 25 25 26 26 27 27 27 27 25 24 22 19 19 18 16 16 18 19 18 17 17 17 16 14 13 10 8 9 10 11 13 14 14 16 15 13 11 9 7 7 7 8 8 9 11 12 12 11
9 10 10 11 10 10 14 17 19 20 21 21 21 22 23 23 25 26 26 26 27 28 26 25 23 21 20 20 18 17 18 19 19 18 17 17 16 14 12 10 8 7 8 8 8 9 10 11 13 13 12 11 10 9 8 7 7 7 7 7 9 10 10
8 9 10 11 11 11 13 15 16 18 19 20 21 22 23 24 25 26 25 25 27 27 25 24 23 22 21 20 19 19 19 19 19 19 18 16 15 12 10 8 7 6 6 5 5 5 6 7 8 9 9 9 9 8 7 7 6 6 5 5 6 7 8
8 8 10 12 11 12 12 13 15 18 19 20 22 22 23 24 25 25 24 24 26 26 26 25 24 23 22 20 20 20 19 19 19 18 17 15 13 11 9 8 7 6 5 4 3 3 3 3 3 4 5 6 7 6 6 6 5 5 5 4 4 5 7
8 8 9 10 10 11 11 11 14 18 20 21 22 24 25 25 24 24 24 23 24 25 26 25 25 24 23 21 20 19 18 18 17 17 16 14 13 11 10 9 8 6 5 5 4 3 3 2 1 0 2 3 4 5 5 5 5 5 5 5 5 5 6
10 10 9 9 9 10 11 11 12 16 19 21 22 24 25 24 24 25 25 24 24 25 25 26 26 25 24 22 20 19 18 17 17 16 16 14 13 11 10 9 8 7 6 5 4 3 3 2 0 1 2 2 3 4 4 4 5 5 5 6 6 6 7
11 11 10 10 10 11 11 10 11 15 19 20 22 23 23 23 23 24 24 25 25 25 25 26 27 26 25 23 21 20 18 17 17 15 14 13 12 11 9 8 8 7 6 5 3 2 2 2 1 1 2 2 3 3 4 4 4 5 6 6 7 7 7
10 11 11 11 11 11 11 11 12 16 19 20 21 23 23 24 25 25 25 26 27 27 26 27 27 26 26 25 22 21 19 18 16 15 13 12 11 11 10 8 7 5 5 5 3 2 1 1 0 1 2 2 3 4 4 4 5 5 6 7 8 8 8
10 11 11 11 11 11 11 12 14 17 20 21 23 23 24 26 27 27 27 27 28 29 29 28 27 27 27 27 25 23 20 18 17 15 14 12 12 11 10 7 5 4 4 4 3 2 1 1 1 2 4 4 5 5 5 6 5 5 6 7 9 9 8
10 11 12 11 11 11 12 12 14 18 20 22 24 25 26 28 28 28 28 29 30 31 30 29 27 27 28 28 27 25 22 19 18 17 16 14 12 11 9 7 5 5 5 4 3 1 2 3 3 4 5 7 7 7 7 7 7 7 7 7 8 9 9
11 11 12 11 11 12 13 14 17 21 23 25 27 28 30 32 31 30 32 32 31 32 32 30 28 28 29 29 29 26 23 21 20 19 18 14 11 10 9 8 5 5 4 3 1 1 3 4 4 5 5 7 8 9 9 8 8 9 9 9 8 9 10
10 11 10 11 12 12 13 16 20 24 26 28 29 30 31 32 32 33 34 32 32 32 32 30 28 28 28 29 28 26 23 22 21 20 18 15 12 11 10 8 6 4 2 1 1 3 4 5 6 6 6 7 9 10 10 9 9 10 10 10 10 9 10
11 11 11 11 11 12 14 18 21 22 24 26 28 29 29 29 30 33 34 32 32 33 32 30 28 28 28 29 28 25 23 21 20 20 18 15 13 11 10 8 6 4 2 1 2 5 6 7 8 8 8 8 9 10 11 10 10 10 10 10 10 10 11
12 12 11 12 14 15 19 22 24 25 25 25 27 29 30 31 33 34 33 31 31 32 31 30 29 28 28 29 27 25 23 21 19 19 18 16 14 12 10 8 6 4 4 3 5 6 8 9 10 10 9 9 9 10 11 10 10 9 9 10 10 10 11
13 14 15 17 20 22 25 26 26 27 28 27 28 29 31 33 34 32 30 28 28 28 28 27 27 28 28 28 27 25 23 21 19 18 18 17 15 13 10 8 6 5 5 5 7 8 9 10 10 9 10 10 10 10 12 12 10 9 9 10 9 9 10
12 13 11 10 13 16 20 23 24 25 27 28 27 28 31 33 33 30 28 26 27 27 28 28 28 28 28 27 26 24 23 21 19 18 17 16 15 14 11 8 8 7 6 7 8 9 9 9 9 10 10 11 10 11 13 13 11 10 10 10 9 9 8
8 9 10 8 11 13 15 19 22 23 25 27 27 28 30 32 32 31 29 28 29 30 30 29 28 28 27 26 26 24 23 21 18 17 16 14 14 13 11 9 8 7 6 7 8 9 9 8 9 10 10 11 11 12 13 13 12 10 10 9 9 8 8
9 14 16 15 17 17 16 18 21 23 24 26 28 29 31 33 32 31 29 30 31 31 30 30 29 28 27 26 26 24 22 20 18 16 14 12 11 10 9 8 7 6 6 7 8 9 9 9 9 11 11 12 13 14 14 14 12 10 9 9 8 8 7
11 13 13 11 12 14 15 17 20 22 23 25 27 29 32 34 32 30 29 30 31 31 31 29 28 27 26 26 25 25 22 20 18 16 12 9 8 8 7 7 6 5 6 7 8 8 9 9 10 12 13 13 14 15 14 14 12 10 8 8 7 7 7
18 15 12 11 11 14 15 14 15 18 20 23 26 30 33 33 30 28 28 29 30 30 29 28 27 26 24 24 25 24 22 20 19 16 13 10 9 8 7 7 6 5 6 6 7 8 9 11 12 13 14 15 15 16 15 13 11 9 8 8 7 7 7
16 14 15 16 15 16 17 14 12 15 19 22 26 29 31 31 28 26 27 28 29 28 27 27 26 24 23 23 23 22 21 19 17 15 14 12 11 9 8 7 6 6 6 7 9 10 11 12 13 15 16 17 17 17 15 12 9 7 8 9 8 7 7
17 16 16 18 18 18 18 17 15 16 19 23 26 27 29 29 26 25 26 27 26 26 26 26 25 23 23 22 22 21 18 15 14 14 14 13 12 10 9 8 7 7 8 9 11 13 14 14 15 16 18 19 19 17 14 10 7 7 8 9 9 8 7
16 16 16 17 19 18 18 20 20 19 20 22 24 26 27 28 27 26 26 26 25 25 26 26 25 24 23 21 21 20 17 14 13 13 13 14 13 12 11 9 9 9 10 11 12 14 15 16 17 18 19 20 20 18 15 11 8 8 8 9 10 10 9
16 17 17 16 17 18 18 20 22 22 21 22 23 25 25 27 28 27 26 25 25 26 26 26 25 25 23 20 20 20 18 16 15 13 13 14 14 13 12 11 10 10 11 12 13 14 15 16 17 19 19 20 20 19 17 14 12 11 10 9 10 12 12
15 16 16 16 18 20 21 21 21 22 22 22 23 23 23 23 25 25 24 24 26 26 25 25 25 25 23 21 19 17 17 16 15 13 13 14 13 13 13 12 12 12 13 14 15 15 16 17 19 19 20 21 20 19 18 16 14 13 12 11 11 12 14
15 16 16 18 20 22 23 22 21 21 21 20 22 23 23 24 24 22 21 23 25 25 23 24 25 25 23 21 18 15 14 14 14 13 12 12 12 12 12 13 13 14 15 16 16 17 18 19 20 21 21 21 21 19 19 18 16 14 12 11 11 12 13
15 16 17 19 21 22 23 22 22 21 20 21 23 25 25 25 23 21 21 23 24 24 24 24 25 23 22 20 18 15 14 13 12 11 11 11 11 12 12 13 14 15 16 17 17 18 19 21 22 22 22 21 21 19 19 20 18 15 13 12 12 13 14
15 16 17 18 19 20 20 19 20 21 21 22 24 25 24 24 22 21 21 22 22 24 25 24 23 22 20 20 18 16 14 12 11 11 10 11 11 12 13 14 15 15 17 18 18 18 20 21 23 22 22 22 22 21 20 21 20 17 15 15 15 15 16
17 17 17 18 18 18 18 18 20 20 21 23 24 24 23 23 22 22 21 21 22 25 25 24 22 21 20 19 19 17 15 12 11 10 10 10 11 12 13 15 15 16 17 19 19 20 20 21 22 22 22 23 23 22 21 21 19 18 17 17 17 17 17
17 18 19 19 19 19 19 20 21 21 22 23 25 24 24 23 22 22 22 21 23 25 25 23 21 20 18 18 18 17 15 13 12 11 11 11 12 13 14 15 17 17 16 15 16 17 18 18 19 19 20 20 21 21 21 20 19 18 18 17 17 17 18
Wind_Direction
147 156 158 160 157 159 158 150 150 150 142 131 133 155 157 135 135 155 160 158 152 147 153 157 158 159 158 157 157 154 151 147 146 142 136 137 139 137 133 123 119 118 112 102 98 98 88 77 76 72 68 66 60 56 51 44 42 41 42 50 55 55 52
151 156 157 158 158 159 154 151 151 141 132 139 155 163 153 140 155 167 155 147 147 147 151 154 154 156 155 153 151 147 146 145 144 141 139 141 141 138 135 128 123 121 115 111 108 104 90 82 84 80 73 67 52 43 40 38 39 35 34 43 51 53 53
154 156 156 157 156 152 150 149 145 137 140 151 160 157 149 151 163 162 147 146 148 147 151 153 153 152 151 149 146 144 145 144 144 144 144 145 144 140 134 126 122 119 119 120 116 107 92 82 85 87 81 67 48 37 33 33 31 26 30 41 47 50 53
153 154 153 152 148 147 149 146 140 137 141 153 162 160 153 154 160 156 150 152 152 151 154 154 152 150 149 147 143 141 144 144 145 145 144 144 143 139 132 123 120 118 119 122 118 108 96 87 86 87 81 64 54 47 41 38 38 38 42 48 48 48 51
154 151 149 151 150 152 151 145 140 137 143 160 168 160 151 153 158 155 153 154 154 154 153 151 150 147 146 146 141 141 145 147 148 146 140 138 141 139 131 121 117 111 109 118 121 112 103 97 90 84 77 66 57 52 49 50 50 51 52 52 50 50 56
156 154 153 154 152 152 148 142 141 143 150 161 162 151 150 154 154 151 150 152 153 151 148 147 147 146 145 145 141 142 148 152 152 148 140 138 141 139 130 122 115 107 102 109 115 113 111 108 98 83 73 66 59 53 53 52 52 52 52 52 52 53 59
154 155 152 152 149 147 142 137 139 145 151 154 150 148 149 148 147 148 149 151 153 150 147 147 148 147 146 145 144 145 150 154 154 151 145 143 144 142 135 130 123 113 103 100 100 101 101 99 90 73 60 55 49 49 50 45 47 51 50 51 53 53 57
150 151 149 149 146 140 135 132 135 142 145 145 147 147 144 146 149 148 148 151 154 152 150 151 152 150 147 147 148 148 152 156 156 154 153 151 148 145 143 139 135 127 112 101 96 93 92 87 78 68 59 52 42 41 43 38 41 45 46 49 51 51 52
145 148 148 144 139 131 130 131 134 139 140 143 146 144 144 148 148 145 148 152 153 153 154 155 155 152 150 151 152 151 156 160 159 157 156 154 149 146 146 145 145 143 130 113 99 93 90 83 74 68 62 58 49 41 35 31 34 36 37 43 46 46 46
142 143 144 140 134 128 129 133 136 140 143 145 144 141 144 146 144 145 150 152 153 155 156 157 156 154 153 153 153 155 160 162 162 161 160 157 151 146 144 145 147 150 148 132 111 99 91 80 71 66 62 59 53 45 34 27 29 28 28 35 39 42 41
140 137 139 139 135 132 135 139 143 144 145 145 143 144 147 146 145 148 150 152 157 158 158 158 157 156 155 154 157 163 163 163 162 163 163 160 155 148 138 134 135 139 144 139 122 110 95 80 71 64 59 56 50 44 33 21 17 16 17 21 26 33 35
144 138 140 142 139 139 143 147 148 147 146 146 146 149 150 148 149 150 149 153 158 158 158 159 158 157 156 157 163 168 167 166 165 166 167 164 156 147 135 131 136 140 140 133 122 114 92 74 70 59 51 49 44 39 30 15 2 0 0 357 360 8 16
143 138 142 143 139 143 148 150 151 149 147 148 150 151 151 151 151 152 151 153 156 158 159 160 161 160 159 160 166 169 168 168 168 168 166 161 151 140 129 125 129 130 130 128 120 101 69 46 48 337 1 18 23 20 18 10 355 345 343 340 335 334 343
142 141 145 143 143 149 151 151 151 148 148 149 149 150 152 153 153 155 155 155 158 160 163 164 165 163 162 162 164 164 163 161 162 163 160 155 148 140 131 125 123 122 123 126 124 103 70 54 115 249 291 325 345 346 348 352 347 336 330 327 323 321 327
145 148 153 152 154 156 153 153 153 149 149 149 149 151 151 152 154 156 157 159 161 163 166 168 169 169 167 165 162 161 158 156 156 158 158 158 154 149 147 140 132 126 121 115 107 98 89 84 142 243 268 282 305 318 317 319 324 328 328 322 315 314 321
150 156 162 162 162 162 158 157 153 150 151 152 152 154 152 153 158 159 160 163 164 165 168 170 172 174 172 168 164 163 161 161 161 161 163 168 168 165 162 152 139 127 115 102 83 79 111 118 133 256 275 283 292 304 312 309 304 308 318 318 313 312 314
159 164 170 170 168 164 159 155 152 153 156 157 157 157 156 159 163 163 164 166 167 169 171 173 175 177 177 174 170 169 168 171 173 172 172 173 172 171 168 158 147 133 122 106 79 82 159 208 294 299 301 300 299 307 318 321 316 305 300 304 309 313 313
168 172 174 173 169 163 159 158 158 160 162 161 160 161 163 165 165 164 166 169 172 174 175 178 179 179 180 179 176 174 175 178 180 178 176 174 172 173 175 171 156 132 119 105 89 118 205 248 282 297 300 299 299 306 316 321 323 317 304 297 300 306 312
175 179 178 174 170 166 166 165 165 166 166 166 167 168 170 170 167 168 171 172 175 176 176 180 182 182 182 182 181 180 179 180 184 182 178 179 183 184 183 180 166 139 119 103 113 218 252 257 270 291 300 301 303 306 309 312 317 320 312 301 295 296 305
182 182 180 176 171 169 170 169 169 171 172 172 172 172 173 172 170 171 173 175 177 177 177 181 183 185 185 185 186 186 182 182 186 187 185 186 191 191 186 185 179 161 140 108 202 252 264 260 269 286 297 303 306 303 301 303 309 315 313 306 297 289 295
186 183 182 179 174 174 174 171 170 173 175 173 172 171 170 169 170 172 175 177 179 178 179 182 184 185 186 187 189 190 187 185 187 190 191 190 192 193 190 188 185 175 176 214 256 262 269 273 278 284 289 300 303 299 298 301 304 309 310 309 304 289 286
186 183 184 182 177 176 177 175 173 172 172 171 171 171 170 170 173 176 176 179 180 178 178 182 183 185 186 187 188 191 190 189 190 193 194 192 193 196 194 195 195 193 209 244 270 273 278 284 285 283 285 292 296 296 300 303 304 306 307 310 309 294 283
188 189 189 185 183 181 178 177 174 170 169 170 171 173 172 173 174 175 174 175 176 175 176 180 184 187 188 188 190 193 193 191 194 198 198 195 196 198 201 206 208 207 220 254 276 279 284 292 291 282 278 283 290 298 305 307 306 306 306 308 309 298 285
197 190 177 171 175 176 175 172 167 166 168 168 170 173 173 172 172 169 168 169 172 172 176 184 190 191 190 191 192 195 196 195 196 199 200 197 198 202 207 209 207 211 231 262 280 283 288 295 292 279 272 277 288 299 308 310 308 306 305 305 305 302 291
178 142 126 147 164 167 171 167 162 166 169 166 168 172 172 171 169 166 164 167 172 175 181 189 195 194 194 195 195 196 199 198 195 195 196 195 196 200 202 200 202 218 246 266 279 287 293 295 287 278 275 281 290 298 306 310 309 305 301 301 301 302 296
156 136 145 165 167 163 168 168 165 168 169 167 169 172 171 169 167 166 166 169 173 179 186 193 198 198 199 201 198 196 198 198 193 192 192 193 196 197 196 198 206 227 254 270 282 290 292 289 284 282 284 290 295 299 304 310 311 304 297 297 300 301 295
109 111 125 138 144 151 161 167 169 170 170 171 172 170 169 169 167 167 169 170 175 183 190 196 199 201 203 203 200 198 200 199 197 196 194 194 198 199 199 207 221 239 260 275 282 283 281 282 285 288 290 296 301 303 307 312 312 302 294 297 299 293 286
78 83 100 121 142 158 160 163 171 171 169 171 171 169 170 170 167 168 170 172 178 186 192 195 199 200 200 200 200 202 204 203 204 205 202 198 199 207 214 220 231 246 262 270 272 272 275 283 291 295 297 302 307 310 312 314 309 297 291 296 294 281 274
117 128 138 146 156 163 158 157 172 176 170 170 171 171 171 169 166 168 170 174 182 188 192 196 197 194 192 194 198 202 203 204 208 211 209 203 202 210 225 233 237 246 259 267 270 274 279 286 294 298 300 305 311 315 317 315 304 291 288 289 288 279 272
143 144 146 151 156 161 159 159 170 176 171 171 173 173 172 169 165 165 170 177 184 188 191 194 192 188 189 193 196 196 195 199 209 214 210 207 207 212 224 236 245 252 262 268 273 276 281 286 294 298 301 306 311 316 321 319 301 287 286 284 281 278 273
137 142 147 150 155 163 164 164 168 168 165 169 172 172 173 170 166 166 172 180 187 189 190 190 188 188 191 195 196 196 195 197 207 215 214 211 213 218 224 234 246 255 263 270 274 277 279 284 292 298 301 304 307 312 319 321 306 288 284 280 275 272 270
138 149 151 149 155 164 164 161 162 159 157 164 171 173 173 171 171 174 178 182 186 189 189 188 188 191 194 195 198 202 203 201 205 215 219 218 220 226 232 239 248 256 264 272 275 277 280 286 293 298 300 302 305 309 312 314 306 291 282 277 271 269 270
144 153 155 156 158 158 154 152 154 156 157 161 167 169 170 172 177 181 182 182 186 189 189 189 193 196 198 200 204 208 209 206 206 214 223 227 230 234 238 243 247 255 264 271 275 278 282 287 293 296 296 299 304 308 309 310 306 294 284 278 273 271 271
148 151 153 157 157 154 153 154 156 158 158 157 160 167 174 179 184 187 186 186 188 189 190 194 198 200 202 205 207 207 206 204 207 216 226 231 233 233 237 240 246 255 264 269 273 277 281 286 291 293 294 297 302 305 305 305 304 298 290 286 280 277 276
146 147 148 152 156 158 159 158 156 156 156 158 166 175 182 185 188 191 192 192 190 190 193 198 201 204 207 207 205 204 202 201 207 217 225 229 231 235 240 246 253 262 268 271 272 275 280 285 288 291 293 295 297 298 297 296 299 302 300 293 284 278 277
141 142 144 149 154 158 157 154 154 157 161 169 178 183 187 189 192 196 198 197 194 193 196 199 202 206 209 207 204 203 204 204 206 215 225 234 242 248 252 257 262 266 271 275 276 278 281 283 286 289 291 293 293 293 291 290 294 299 298 293 287 281 278
144 142 146 151 154 153 150 152 160 167 172 178 184 188 191 194 197 199 201 202 200 197 198 201 204 207 209 208 206 205 206 208 211 220 233 244 253 260 265 270 274 274 275 278 279 280 280 281 283 285 287 288 289 290 289 287 289 293 295 294 291 287 283
150 149 153 158 159 155 156 163 173 181 184 186 188 191 195 199 201 201 203 204 201 198 199 203 206 207 207 209 209 208 211 216 221 230 242 251 259 266 270 275 282 285 284 281 280 281 282 282 282 283 283 283 285 286 286 285 287 290 293 294 293 292 289
Height
781 783 785 786 788 791 793 797 800 804 809 815 819 820 821 824 825 825 825 826 829 831 832 833 835 836 838 841 843 845 846 848 850 851 852 853 854 855 856 857 857 858 858 859 859 860 860 860 859 859 859 858 858 858 858 857 857 856 856 855 854 854 853
780 782 784 785 788 790 792 795 799 804 809 813 815 816 819 821 822 823 825 828 830 831 833 834 835 836 838 841 844 845 847 848 850 852 852 854 855 856 857 858 858 859 859 859 860 860 860 860 860 860 859 859 859 859 859 858 858 857 856 856 855 854 854
780 781 783 785 787 789 791 795 800 803 806 811 814 816 818 819 822 824 826 828 830 831 834 835 835 836 839 842 844 846 847 849 851 852 853 854 856 857 858 858 859 859 860 860 861 861 861 861 861 860 860 860 860 860 860 859 858 857 857 856 855 855 855
780 780 782 785 786 789 792 795 799 802 807 811 812 813 816 819 822 825 827 828 829 831 833 834 835 837 840 842 844 846 848 850 852 853 854 855 856 857 858 859 859 860 860 861 861 861 862 862 861 861 861 861 861 861 860 860 859 858 857 856 856 855 855
780 780 782 785 786 789 791 794 798 801 805 807 809 812 816 819 822 825 827 828 829 831 833 834 835 837 841 843 844 847 849 851 853 854 855 856 857 858 859 859 859 860 861 861 862 862 862 862 862 862 862 862 862 861 861 860 859 859 858 857 857 856 856
779 780 783 785 786 789 791 794 798 800 803 806 810 816 817 819 823 825 828 829 830 833 835 836 837 837 841 844 845 848 850 852 853 854 856 857 858 859 859 860 860 860 861 862 862 863 863 863 863 862 862 862 862 862 861 861 860 860 859 859 858 858 857
778 780 783 785 787 790 792 796 799 801 805 808 812 816 818 820 824 825 828 830 832 835 836 838 839 840 842 844 846 849 850 852 854 855 857 858 859 860 859 860 861 861 862 862 863 863 863 863 863 863 863 863 863 862 862 862 861 861 860 860 859 859 858
778 780 783 785 787 790 794 797 801 804 807 810 813 816 818 821 823 825 828 831 833 835 836 838 840 841 843 845 847 850 851 853 855 856 857 858 859 860 860 860 861 861 863 863 863 864 864 864 864 863 863 863 863 863 862 862 862 861 861 861 860 860 859
778 780 782 786 787 791 795 798 803 806 807 811 813 814 817 819 823 827 830 832 833 835 837 839 841 842 844 846 848 850 852 853 855 856 858 859 859 860 860 860 861 862 863 864 864 865 865 865 864 864 864 864 864 863 863 863 862 862 862 861 861 861 860
778 780 782 786 788 791 796 799 803 806 808 812 814 815 817 820 824 828 831 833 834 836 838 839 841 843 845 847 849 851 853 854 856 857 858 859 860 860 860 861 861 862 863 864 864 865 865 865 865 865 865 865 865 864 864 863 863 863 862 862 862 861 861
779 782 783 787 789 791 796 799 803 806 809 812 815 817 819 821 825 829 831 833 834 836 838 839 841 843 845 848 850 852 854 855 856 857 858 859 860 860 861 861 861 862 863 864 865 865 865 865 865 866 866 866 865 865 864 864 863 863 863 863 862 862 861
781 783 785 787 789 792 795 798 802 805 809 812 814 818 820 823 827 829 831 833 834 835 837 839 842 844 846 849 850 852 854 855 856 858 859 860 860 860 861 861 862 862 863 864 864 865 865 865 866 866 866 866 866 865 865 864 864 863 863 863 863 862 862
782 784 786 788 790 792 795 798 801 805 808 812 814 817 820 823 826 828 830 832 834 836 838 840 843 845 847 850 851 853 854 855 857 858 859 860 860 860 861 861 862 862 863 863 864 864 865 865 866 866 866 866 866 866 865 865 864 864 863 863 863 862 862
783 785 787 789 791 794 796 798 801 804 807 811 814 816 819 822 825 827 829 832 834 837 838 841 843 846 848 850 852 853 854 855 857 858 859 859 860 860 860 861 862 862 862 863 863 864 864 865 866 866 866 867 866 866 866 865 864 864 863 863 863 862 862
784 786 787 790 792 794 796 799 801 804 807 810 813 815 818 821 824 827 829 832 834 837 839 841 844 846 849 851 852 853 854 856 857 857 858 859 859 860 860 861 861 862 862 862 863 863 864 865 866 866 866 867 866 866 866 865 865 864 863 863 862 862 861
784 786 787 789 791 792 795 797 800 803 807 809 812 815 818 821 824 826 829 831 834 837 839 842 844 846 849 851 852 853 854 856 856 857 858 858 859 860 860 861 861 861 862 862 862 863 864 865 866 866 866 866 866 866 865 865 864 864 863 863 862 862 861
784 786 786 788 790 791 794 796 800 803 805 808 811 814 817 820 822 825 828 831 834 836 839 842 844 846 848 849 851 852 854 855 856 857 858 858 859 859 860 860 860 861 861 862 862 863 864 865 866 866 866 866 866 865 865 864 864 863 863 862 862 861 861
783 784 785 787 788 791 793 795 798 801 803 806 809 812 816 818 821 825 827 830 833 835 838 841 843 845 847 848 850 851 852 854 855 856 857 857 858 858 859 860 860 860 861 861 862 863 864 865 865 865 866 865 865 865 864 864 863 863 863 862 862 861 860
781 782 783 785 787 789 791 792 795 798 801 804 806 809 812 815 818 822 825 829 832 834 837 839 841 844 846 848 849 850 851 853 854 855 856 856 857 858 858 859 859 860 861 861 862 863 864 865 865 865 865 864 864 864 863 863 863 862 862 861 861 861 860
779 780 781 783 785 786 789 791 794 796 798 801 803 807 811 814 817 821 824 828 831 833 836 838 840 843 845 847 849 849 850 851 852 854 855 855 857 857 858 859 859 860 861 861 862 863 864 864 864 864 864 864 864 863 863 863 862 862 861 861 860 860 859
776 778 780 782 783 785 787 789 792 795 797 800 803 806 810 814 817 821 824 827 829 831 834 837 839 842 844 846 848 849 850 850 851 853 854 855 856 856 857 858 859 859 860 861 862 863 863 864 864 863 863 863 863 862 862 862 861 861 860 859 859 859 858
772 775 777 778 780 782 784 787 789 792 795 799 803 805 809 812 816 819 822 826 828 831 833 836 839 841 843 844 846 847 849 850 851 852 853 854 855 856 857 857 858 859 860 860 861 862 862 863 863 863 863 862 862 862 861 861 860 860 859 859 858 858 857
768 769 771 774 776 778 781 784 787 790 794 797 801 804 807 810 814 817 822 826 829 831 834 836 838 840 841 843 845 846 848 849 850 851 852 853 854 855 856 857 858 858 859 860 861 861 861 862 862 862 862 861 861 861 860 860 859 859 858 858 857 856 856
766 769 774 778 781 782 783 785 787 791 794 796 800 804 806 809 813 817 822 826 829 831 833 835 837 838 840 842 844 846 847 848 850 851 852 853 853 854 856 856 857 858 858 859 860 860 860 861 860 861 861 860 860 860 859 859 858 858 857 857 856 855 855
768 774 780 783 784 786 788 789 790 793 796 797 800 804 806 809 813 816 820 824 827 829 831 833 835 837 839 841 843 845 847 848 849 850 851 852 853 854 855 856 856 857 858 858 859 859 859 860 859 860 860 859 859 859 858 858 857 857 856 856 855 854 854
769 774 777 780 782 786 791 793 793 795 797 798 800 803 806 808 812 815 818 822 824 826 828 831 834 836 838 840 842 845 846 848 849 850 851 852 853 853 854 855 856 856 857 857 858 858 858 858 858 858 858 858 858 858 857 857 856 855 855 854 854 854 853
774 778 781 785 788 789 792 795 796 797 799 800 801 803 805 808 810 814 817 820 822 824 826 829 833 835 837 840 842 844 846 847 849 850 850 851 852 853 854 854 855 855 856 856 857 857 857 857 857 857 857 857 857 856 856 856 855 854 854 853 853 853 852
781 784 787 790 792 792 793 796 799 800 801 802 803 804 805 807 810 812 816 818 820 823 826 829 832 834 837 839 842 844 845 847 848 849 850 851 851 852 853 853 854 854 855 855 855 855 856 856 856 856 856 855 855 855 854 854 854 853 852 852 852 852 851
778 780 782 785 789 791 792 797 801 803 802 803 804 805 806 807 809 812 815 818 820 823 827 829 831 834 837 839 841 843 844 846 847 848 849 850 851 851 852 852 853 853 854 854 854 854 855 855 855 855 854 854 854 853 853 853 852 852 851 851 851 851 850
774 777 780 783 787 789 792 796 802 804 803 803 804 806 807 808 810 813 815 818 821 824 827 829 832 834 837 839 841 842 844 845 846 847 848 849 849 850 851 851 852 852 852 853 853 853 853 853 853 853 853 853 852 852 851 851 851 851 850 850 850 849 849
777 779 781 784 787 789 791 794 799 802 803 804 805 807 807 808 810 812 816 819 822 824 827 829 832 834 836 838 840 841 842 844 845 846 847 848 848 849 849 850 851 851 851 852 852 852 852 852 852 852 852 851 851 850 850 850 849 849 849 848 848 848 848
778 779 781 783 786 788 791 794 797 800 802 803 805 807 808 809 811 813 816 819 821 824 826 829 831 834 836 837 839 840 841 842 844 844 845 846 847 847 848 849 849 849 850 850 850 850 850 850 850 850 850 850 849 849 848 848 848 848 847 847 847 846 846
778 779 781 783 785 788 792 794 797 799 800 802 805 806 809 811 812 814 816 819 821 824 826 829 831 833 835 836 837 839 840 841 842 843 844 845 845 846 847 847 848 848 848 848 848 848 849 849 849 848 848 848 847 847 847 846 846 846 845 845 845 845 844
777 779 782 784 786 789 791 794 796 798 800 802 804 807 809 811 813 815 817 819 821 824 826 828 830 832 834 835 836 838 839 840 841 842 842 843 844 844 845 845 846 846 846 846 847 847 847 847 847 846 846 846 845 845 845 844 844 843 843 843 843 842 842
777 779 782 784 786 788 790 793 795 797 800 803 805 807 809 810 812 815 817 819 821 823 825 828 829 831 833 834 835 836 837 838 839 840 841 841 842 843 843 844 844 844 844 844 845 845 845 845 844 844 844 844 844 843 843 842 841 841 841 841 841 840 840
778 780 782 784 787 789 791 794 796 798 801 803 805 807 809 810 812 815 817 819 821 823 825 827 828 830 831 832 834 835 836 837 838 838 839 840 840 841 841 842 842 842 842 842 842 842 843 842 842 842 842 841 841 841 840 840 839 839 839 839 838 838 838
777 780 782 785 787 789 792 795 797 799 800 802 804 806 808 810 812 814 816 818 820 822 824 826 827 829 830 831 832 833 834 835 836 837 838 838 839 839 840 840 840 840 840 840 840 840 840 840 839 839 839 839 838 838 838 837 837 837 836 836 836 836 835
778 779 782 785 787 790 792 794 796 798 800 802 804 806 807 809 811 813 815 817 819 821 823 825 826 827 828 830 831 832 833 834 835 836 836 837 837 838 838 838 838 837 837 837 837 837 837 837 836 836 836 836 836 835 835 835 834 834 834 833 833 833 832